Regional Weather Roundup
Issued by NWS

Home | Current Version | Previous Version | Text Only | Print | Product List | Glossary Off
Versions: 1 2 3 4 5 6 7 8 9 10 11 12 13 14 15 16 17 18 19 20 21 22 23 24 25 26 27 28 29 30 31 32 33 34 35 36 37 38 39 40 41 42 43 44 45 46 47 48 49 50

000
ASUS45 KPSR 291510
RWRAZ

ARIZONA REGIONAL HOURLY WEATHER ROUNDUP
NATIONAL WEATHER SERVICE PHOENIX AZ
800 AM MST SUN MAR 29 2015

NOTE: FAIR INDICATES FEW OR NO CLOUDS BELOW 12,000 FEET WITH NO
SIGNIFICANT WEATHER AND/OR OBSTRUCTIONS TO VISIBILITY.

AZZ001>003-036-291600-
NORTHWEST ARIZONA

CITY           SKY/WX    TMP DP  RH WIND       PRES   REMARKS
BULLHEAD CITY  MOSUNNY   66  27  22 N7        30.04R
KINGMAN        SUNNY     65  29  25 CALM      30.14R
$$

AZZ004>008-015-016-018-291600-
NORTH CENTRAL ARIZONA

CITY           SKY/WX    TMP DP  RH WIND       PRES   REMARKS
GRAND CANYON   SUNNY     44  26  49 CALM      30.31S
WILLIAMS       SUNNY     48  23  37 S7        30.38R
PRESCOTT       MOSUNNY   53  24  32 N3        30.25R
FLAGSTAFF      SUNNY     45  25  45 CALM      30.33R
PAYSON         SUNNY     54  27  35 CALM      30.26R
PAGE           SUNNY     61  22  22 W9        30.21R
$$

AZZ009>014-017-291600-
NORTHEAST ARIZONA

CITY           SKY/WX    TMP DP  RH WIND       PRES   REMARKS
WINSLOW        MOSUNNY   48  21  34 SE6       30.26R
SAINT JOHNS    MOSUNNY   55  11  17 S3        30.28S
WINDOW ROCK    SUNNY     43  18  36 CALM      30.33R
SHOW LOW       SUNNY     55  23  28 CALM      30.33S
$$

AZZ023-291600-
GREATER PHOENIX AREA

CITY           SKY/WX    TMP DP  RH WIND       PRES   REMARKS
PHOENIX        PTSUNNY   70  31  23 SE9       30.03R
BUCKEYE        MOSUNNY   66  32  28 CALM      30.03R
GLENDALE       PTSUNNY   66  37  34 CALM      30.05R
DEER VALLEY    MOSUNNY   69  31  24 NE6       30.04R
SCOTTSDALE     MOSUNNY   69  35  28 CALM      30.06R
MESA-FALCON    PTSUNNY   68  27  21 N8          N/A
MESA-GATEWAY   MOSUNNY   61  30  31 SE6       30.06R
CHANDLER       PTSUNNY   64  30  27 CALM      30.05R
$$

AZZ027-028-291600-
SOUTHWEST MARICOPA COUNTY AND PINAL COUNTY

CITY           SKY/WX    TMP DP  RH WIND       PRES   REMARKS
CASA GRANDE    SUNNY     66  28  24 CALM      30.05R
$$

AZZ503-504-507>509-291600-
SOUTHEAST ARIZONA

CITY           SKY/WX    TMP DP  RH WIND       PRES   REMARKS
TUCSON         SUNNY     68  26  20 SE10      30.13R
RYAN FIELD       N/A     64  34  32 CALM      30.13R
NOGALES        MOSUNNY   59  28  30 CALM      30.20R
DOUGLAS        SUNNY     60  27  28 CALM      30.22R
SAFFORD        SUNNY     57  21  24 SE5       30.15R
$$

AZZ020-021-025-026-031-291600-
SOUTHWEST ARIZONA

CITY           SKY/WX    TMP DP  RH WIND       PRES   REMARKS
YUMA           PTSUNNY   73  40  30 CALM      29.97R
$$

CAZ031-033-041-043-047-048-061-291600-
SOUTHERN CALIFORNIA

CITY           SKY/WX    TMP DP  RH WIND       PRES   REMARKS
DOWNTOWN L.A.  CLOUDY    59  57  93 E5        30.05S FOG
L.A. AIRPORT   FOG       57  57 100 NE7       30.06S VSB 1/2
SAN DIEGO      CLOUDY    62  56  80 CALM      30.07S
BURBANK        SUNNY     59  47  64 E5        30.05S
ONTARIO        MOSUNNY   58  49  72 CALM      30.07R
RIVERSIDE      PTSUNNY   58  42  55 CALM      30.08R
PALM SPRINGS   MOSUNNY   73  31  21 CALM      29.99R
EL CENTRO NAS  PTSUNNY   71  31  22 S3        29.95R
IMPERIAL       CLOUDY    69  33  26 SW3       29.94R
BLYTHE         PTSUNNY   67  36  31 CALM      29.99R
NEEDLES        PTSUNNY   68  26  20 E3        30.02R
$$

NVZ020-UTZ003-291600-
SOUTHERN NEVADA-UTAH

CITY           SKY/WX    TMP DP  RH WIND       PRES   REMARKS
LAS VEGAS      MOSUNNY   67  22  18 S10       30.07R
SALT LAKE CITY SUNNY     45  26  47 S3        30.33R
$$

NMZ009-TXZ055-291600-
NEW MEXICO-WEST TEXAS

CITY           SKY/WX    TMP DP  RH WIND       PRES   REMARKS
ALBUQUERQUE    MOSUNNY   57  18  21 SE5       30.26R
EL PASO        SUNNY     62  16  16 SE3       30.18R
$$


........................KEY........................
SKY/WX - SKY CONDITION/WEATHER
TMP    - TEMPERATURE IN FAHRENHEIT
DP     - DEW POINT IN FAHRENHEIT
RH     - RELATIVE HUMIDITY IN PERCENT
WIND   - DIRECTION AND SPEED IN MILES PER HOUR (MPH)
VRB    - VARIABLE WIND DIRECTION
PRES   - MEAN SEA LEVEL PRESSURE IN INCHES OF MERCURY
         F - FALLING PRESSURE   R - RISING PRESSURE
         S - STEADY PRESSURE
VSB    - VISIBILITY IN MILES
HX     - HEAT INDEX IN FAHRENHEIT
WCI    - WIND CHILL INDEX IN FAHRENHEIT
TC     - TEMPERATURE IN CELSIUS WHICH IS ALSO KNOWN AS
         TEMPERATURE IN CENTIGRADE
AFB    - AIR FORCE BASE
         LUKE AFB IS LUKE AIR FORCE BASE
         DAVIS-MONTHAN IS DAVIS-MONTHAN AIR FORCE BASE
NAS    - NAVAL AIR STATION
         EL CENTRO NAS IS EL CENTRO NAVAL AIR STATION
N/A    - NOT AVAILABLE



USA.gov is the U.S. government's official web portal to all federal, state and local government web resources and services.